Flag for Poland Weather past 2 weeks in Wroclaw, Poland

Now
48 °F

Partly sunny.


Feels Like: 44 °F
Forecast: 38 / 48 °F
Wind: 10 mph from Northwest

Location: Wroclaw Ii

Current Time: Mar 27, 2015 at 2:00:53 PM

Latest Report: Mar 27, 2015 at 1:30 PM


Visibility: N/A

Pressure: 29.92 "Hg

Humidity: 76%

Dew point: 41 °F

Location of WroclawLocation

Historic Weather in Wroclaw — Graph

°F

Wroclaw temperature yesterday

Maximum temperature yesterday: 63 °F (at 3:00 PM)
Minimum temperature yesterday: 46 °F (at 11:30 PM)
Average temperature yesterday: 54 °F

Past Weeks' High & Low Weather Summary

 TemperatureHumidityPressure
High66 °F (Mar 25, 2:30 PM)94% (Mar 26, 8:30 AM)30.54 "Hg (Mar 26, 8:30 AM)
Low27 °F (Mar 23, 1:00 AM)22% (Mar 18, 12:30 PM)29.68 "Hg (Mar 26, 6:00 AM)
Average44 °F66%30.18 "Hg
* Reported Mar 12 1:00 PM — Mar 27 1:00 PM, Wroclaw, Weather by CustomWeather, © 2015

Note: Actual official high and low records may vary slightly from our data, if they occured in-between our weather recording intervals... More about our weather records

Advertising

Wroclaw weather history for previous 24 hours

 ConditionsComfort  
Time TempWeatherWind HumidityBarometerVisibility
1:00 PM
Fri, Mar 27
48 °FBroken clouds.13 mph71%29.92 "HgN/A
12:30 PM48 °FPartly sunny.10 mph76%29.92 "HgN/A
12:00 PM46 °FBroken clouds.10 mph87%29.92 "HgN/A
11:30 AM46 °FPartly sunny.9 mph82%29.92 "HgN/A
11:00 AM48 °FPartly sunny.13 mph76%29.89 "Hg6 mi
10:30 AM46 °FPartly sunny.12 mph82%29.89 "Hg5 mi
10:00 AM46 °FPartly sunny.14 mph87%29.89 "Hg4 mi
9:30 AM45 °FLight rain. Fog.13 mph87%29.89 "Hg3 mi
9:00 AM45 °FLight rain. Fog.12 mph87%29.86 "Hg2 mi
8:30 AM45 °FLight rain. Fog.13 mph87%29.86 "Hg2 mi
8:00 AM45 °FLight rain. Fog.14 mph87%29.86 "Hg2 mi
7:30 AM45 °FLight rain. Fog.13 mph87%29.83 "Hg2 mi
7:00 AM45 °FLight rain. Fog.10 mph87%29.83 "Hg1 mi
6:30 AM45 °FLight rain. Fog.10 mph87%29.80 "Hg2 mi
6:00 AM45 °FLight rain. Fog.9 mph87%29.80 "Hg2 mi
5:30 AM45 °FLight rain. Fog.9 mph93%29.80 "Hg2 mi
5:00 AM45 °FLight rain. Fog.9 mph93%29.77 "Hg2 mi
4:00 AM45 °FLight rain. Fog.8 mph93%29.77 "Hg2 mi
3:30 AM45 °FLight rain. Fog.9 mph93%29.77 "Hg1 mi
3:00 AM46 °FLight rain. Fog.7 mph87%29.77 "Hg1 mi
2:30 AM46 °FLight rain. Fog.8 mph87%29.77 "Hg1 mi
2:00 AM46 °FLight rain. Fog.7 mph87%29.77 "Hg1 mi
1:30 AM46 °FLight rain. Fog.6 mph87%29.77 "Hg2 mi
1:00 AM46 °FLight rain. Fog.5 mph87%29.77 "Hg2 mi
12:30 AM46 °FLight rain. Fog.5 mph87%29.77 "Hg2 mi
12:00 AM46 °FLight rain. Fog.6 mph87%29.77 "Hg2 mi
11:30 PM
Thu, Mar 26
46 °FLight rain. Fog.3 mph93%29.77 "Hg3 mi
11:00 PM48 °FLight rain. Fog.7 mph87%29.77 "Hg3 mi
10:30 PM48 °FLight rain. Passing clouds.8 mph87%29.77 "Hg4 mi
10:00 PM48 °FLight rain. Passing clouds.8 mph87%29.77 "Hg4 mi
9:30 PM48 °FLight rain. Passing clouds.8 mph87%29.77 "Hg4 mi
9:00 PM50 °FLight rain. Passing clouds.8 mph82%29.77 "Hg4 mi
8:30 PM52 °FLight rain. Overcast.8 mph82%29.77 "Hg4 mi
8:00 PM52 °FLight rain. Passing clouds.6 mph82%29.74 "Hg4 mi
7:30 PM54 °FLight rain. Passing clouds.8 mph77%29.74 "Hg5 mi
7:00 PM54 °FLight rain. Passing clouds.9 mph77%29.74 "Hg5 mi
6:30 PM55 °FPassing clouds.9 mph72%29.74 "Hg4 mi
6:00 PM55 °FPartly sunny.7 mph77%29.74 "HgN/A
5:30 PM57 °FPassing clouds.9 mph72%29.71 "HgN/A
5:00 PM61 °FPassing clouds.5 mph59%29.71 "HgN/A
4:30 PM61 °FPassing clouds.5 mph59%29.71 "HgN/A
4:00 PM61 °FPartly sunny.5 mph59%29.71 "HgN/A
3:30 PM63 °FPartly sunny.9 mph52%29.71 "HgN/A
3:00 PM63 °FScattered clouds.9 mph56%29.71 "HgN/A
2:30 PM61 °FScattered clouds.10 mph55%29.71 "HgN/A
2:00 PM61 °FScattered clouds.10 mph55%29.71 "HgN/A
Weather by CustomWeather, © 2015

See weather overviewHow to use our weather pages